This demonstration page uses our WeatherBlox Daily Observations layout. Learn more.

Left ArrowRight Arrow

Hourly Observations for March 12, 2017

Temp ( °F °C ) Dew Point ( °F °C ) Humidity (%) Winds ( mph kmh ) Pressure ( in mb ) Visibility ( mi km ) Precip ( " mm )
12:06 am 00:06 Cloudy 32 0 27 -3 80 80 NNE 12 19 30.50 1033 10 16 0.00 0.00
12:52 am 00:52 Cloudy 32 0 26 -3.3 79 79 ENE 9 15 30.47 1032 10 16 0.00 0.00
1:52 am 01:52 Cloudy 31 -0.6 25 -3.9 79 79 ENE 6 9 30.47 1032 10 16 0.00 0.00
3:52 am 03:52 Cloudy 31 -0.6 26 -3.3 82 82 ENE 8 13 30.45 1031 10 16 0.00 0.00
4:52 am 04:52 Cloudy 30 -1.1 25 -3.9 82 82 ENE 6 9 30.43 1030 10 16 0.00 0.00
5:52 am 05:52 Cloudy 30 -1.1 24 -4.4 79 79 E 6 9 30.45 1031 10 16 0.00 0.00
6:52 am 06:52 Mostly Cloudy 29 -1.7 24 -4.4 82 82 ESE 7 11 30.40 1029 10 16 0.00 0.00
7:06 am 07:06 Partly Cloudy 28 -2 23 -5 80 80 ESE 7 11 30.42 1030 10 16 0.00 0.00
7:52 am 07:52 Sunny 28 -2.2 24 -4.4 85 85 SE 6 9 30.40 1029 10 16 0.00 0.00
8:52 am 08:52 Sunny 32 0 25 -3.9 75 75 SE 3 6 30.41 1030 10 16 0.00 0.00
9:52 am 09:52 Sunny 34 1.1 22 -5.6 61 61 SE 10 17 30.40 1030 10 16 0.00 0.00
10:52 am 10:52 Sunny 37 2.8 23 -5 57 57 S 8 13 30.39 1029 10 16 0.00 0.00
11:52 am 11:52 Sunny 40 4.4 24 -4.4 53 53 SSE 8 13 30.39 1029 10 16 0.00 0.00
12:52 pm 12:52 Sunny 42 5.6 23 -5 47 47 VRB 3 6 30.37 1029 10 16 0.00 0.00
1:52 pm 13:52 Sunny 43 6.1 23 -5 45 45 SE 5 7 30.33 1027 10 16 0.00 0.00
2:52 pm 14:52 Sunny 46 7.8 24 -4.4 42 42 undefined N/A 30.27 1025 10 16 0.00 0.00
3:52 pm 15:52 Sunny 48 8.9 26 -3.3 42 42 SE 18 30 30.21 1023 10 16 0.00 0.00
4:52 pm 16:52 Sunny 47 8.3 26 -3.3 44 44 SSE 18 30 30.19 1022 10 16 0.00 0.00
5:52 pm 17:52 Sunny 46 7.8 27 -2.8 47 47 S 18 30 30.13 1020 10 16 0.00 0.00
6:52 pm 18:52 Sunny 42 5.6 26 -3.3 53 53 SSE 16 26 30.12 1020 10 16 0.00 0.00
7:52 pm 19:52 Clear 40 4.4 26 -3.3 58 58 S 13 20 30.14 1021 10 16 0.00 0.00
8:52 pm 20:52 Partly Cloudy 40 4.4 27 -2.8 60 60 S 10 17 30.13 1020 10 16 0.00 0.00
9:52 pm 21:52 Cloudy with Light Rain 40 4.4 28 -2.2 63 63 S 12 19 30.14 1021 10 16 0.00 0.03
10:52 pm 22:52 Cloudy with Light Snow 37 2.8 30 -1.1 76 76 SE 13 20 30.12 1020 5 8 0.02 0.51
11:52 pm 23:52 Cloudy with Light Rain 36 2.2 32 0 86 86 SE 14 22 30.12 1020 7 11 0.06 1.52

Powered by AerisWeather